EUTELSAT HOTBIRD 13B

Last updated on Wed Sep 17 2025 00:02:46 GMT+0000 (Coordinated Universal Time)

1 29270U 06032A 25259.51890507 .00000137 00000+0 00000+0 0 9998 2 29270 0.9498 85.2430 0003883 91.9794 38.4249 1.00275486 44567
UTC large
Height (km)
Speed (km/s)
/
Latitude / Longitude
Inclination (degrees)
Orbital Period (minutes)
Azimuth
Elevation
Range (km)
Doppler Factor

Next 0 passes for location: London (51.5072 / 0.1276)

Sorry there are no passes over London.